Seward, AK

7:45 PM AKDT on July 25, 2017 (GMT -0800)
Seward

Weather History for PAWD - February, 2013

Change the Weather History Date:

Wednesday, February 20, 2013

  Actual Average Record
Temperature  
Mean Temperature 30 °F -  
Max Temperature 36 °F 31 °F 47 °F (1957)
Min Temperature 25 °F 21 °F 2 °F (1954)
Degree Days  
Heating Degree Days 34    
Moisture  
Dew Point 22 °F    
Average Humidity 74    
Maximum Humidity 78    
Minimum Humidity 67    
Precipitation  
Precipitation 0.06 in - - ()
Sea Level Pressure  
Sea Level Pressure 29.06 in    
Wind  
Wind Speed 13 mph (North)    
Max Wind Speed 22 mph    
Max Gust Speed 31 mph    
Visibility 10 miles    
Events Snow    
Averages and records for this station are not official NWS values.
T = Trace of Precipitation, MM = Missing Value Source: NWS Daily Summary

Daily Weather History Graph

Daily Weather History Graph

Search for Another Location

Airport or City:

Trip Planner

Search our weather history database for the weather conditions in past years. The results will help you decide how hot, cold, wet, or windy it might be!

Date:

Astronomy

Feb. 20, 2013 Rise Set
Actual Time 8:20 AM AKST 6:02 PM AKST
Civil Twilight 7:37 AM AKST 6:46 PM AKST
Nautical Twilight 6:49 AM AKST 7:34 PM AKST
Astronomical Twilight 6:01 AM AKST 8:23 PM AKST
Moon 12:42 PM AKST (2/20) 5:40 AM AKST (2/20)
Length of Visible Light 11h 08m
Length of Day
9h 42m
Waxing Gibbous, 77% of the Moon is Illuminated
Feb 20
Waxing Gibbous
Feb 25
Full
Mar 4
Last Quarter
Mar 11
New
Mar 19
First Quarter

Hourly Weather History & Observations

Time (AKST) Temp. Windchill Dew Point Humidity Pressure Visibility Wind Dir Wind Speed Gust Speed Precip Events Conditions
12:53 AM 36.0 °F 29.0 °F 26.1 °F 67% 29.13 in 10.0 mi NNW 9.2 mph - 0.02 in   Overcast
1:53 AM 36.0 °F 31.1 °F 27.0 °F 70% 29.11 in 10.0 mi NNW 5.8 mph - 0.03 in   Overcast
2:53 AM 33.1 °F 24.9 °F 25.0 °F 72% 29.10 in 9.0 mi North 10.4 mph - 0.01 in Snow Light Snow
3:53 AM 28.9 °F 17.7 °F 23.0 °F 78% 29.07 in 10.0 mi North 15.0 mph - 0.00 in   Overcast
4:53 AM 28.0 °F 16.5 °F 21.9 °F 78% 29.03 in 10.0 mi North 15.0 mph - N/A   Overcast
5:53 AM 32.0 °F 22.1 °F 24.1 °F 73% 29.00 in 10.0 mi North 13.8 mph - N/A   Overcast
6:53 AM 30.9 °F 19.8 °F 23.0 °F 72% 28.98 in 10.0 mi North 16.1 mph 20.7 mph N/A   Overcast
7:53 AM 26.1 °F 14.0 °F 19.0 °F 75% 28.98 in 10.0 mi North 15.0 mph - N/A   Overcast
8:53 AM 25.0 °F 14.8 °F 18.0 °F 75% 28.98 in 10.0 mi North 10.4 mph - N/A   Overcast
9:53 AM 25.0 °F 12.6 °F 18.0 °F 75% 28.99 in 10.0 mi North 15.0 mph 20.7 mph N/A   Overcast
10:53 AM 25.0 °F 17.1 °F 19.0 °F 78% 29.01 in 10.0 mi NNE 6.9 mph - N/A   Overcast
11:53 AM 26.1 °F 15.6 °F 19.9 °F 78% 29.02 in 10.0 mi North 11.5 mph - N/A   Overcast
12:53 PM 28.0 °F 15.7 °F 21.0 °F 75% 29.02 in 10.0 mi North 17.3 mph - N/A   Overcast
1:53 PM 30.0 °F 21.1 °F 23.0 °F 75% 29.02 in 10.0 mi NNE 10.4 mph 17.3 mph N/A   Scattered Clouds
2:53 PM 32.0 °F 22.1 °F 24.1 °F 73% 29.03 in 10.0 mi NNE 13.8 mph 24.2 mph N/A   Overcast
3:53 PM 33.1 °F 24.4 °F 24.1 °F 70% 29.03 in 10.0 mi NNE 11.5 mph - N/A   Partly Cloudy
4:53 PM 30.9 °F 20.7 °F 23.0 °F 72% 29.05 in 10.0 mi NNE 13.8 mph 20.7 mph N/A   Scattered Clouds
5:53 PM 30.0 °F 17.5 °F 23.0 °F 75% 29.06 in 10.0 mi North 19.6 mph - N/A   Partly Cloudy
6:53 PM 28.9 °F 18.2 °F 21.0 °F 72% 29.09 in 10.0 mi NNE 13.8 mph 20.7 mph N/A   Scattered Clouds
7:53 PM 28.0 °F 14.3 °F 21.0 °F 75% 29.11 in 10.0 mi North 21.9 mph 28.8 mph N/A   Mostly Cloudy
8:53 PM 28.0 °F 14.6 °F 21.0 °F 75% 29.12 in 10.0 mi North 20.7 mph 27.6 mph N/A   Overcast
9:53 PM 28.0 °F 14.6 °F 21.0 °F 75% 29.13 in 10.0 mi North 20.7 mph 31.1 mph N/A   Overcast
10:53 PM 27.0 °F 13.9 °F 19.9 °F 75% 29.15 in 10.0 mi NNE 18.4 mph 27.6 mph 0.00 in   Overcast
11:53 PM 27.0 °F 13.5 °F 19.9 °F 75% 29.17 in 10.0 mi NNE 19.6 mph 29.9 mph N/A   Overcast